Temperature
6 6 5 5 5 5 4 4 4 4 3 3 3 3 3 2 2 2 2 2 2 2 2 2 2 2 1 1 1 1 1 0 0 1 2 2 3 3 3 4 4 4 5
6 5 5 5 5 4 4 4 4 3 3 3 3 2 2 2 2 2 2 2 1 1 1 1 1 1 1 1 1 0 0 -0 -0 -0 1 1 2 2 2 3 3 3 3
6 5 5 5 4 4 4 4 3 3 3 2 2 2 2 2 1 1 1 1 1 1 1 0 0 0 -0 -0 -0 -0 -1 -1 -1 -1 -1 -0 1 1 1 2 2 2 2
6 5 5 5 4 4 4 3 3 3 2 2 2 2 1 1 1 1 1 0 0 0 0 -0 -0 -1 -1 -1 -1 -1 -1 -2 -2 -2 -2 -1 -1 -1 -0 -0 1 1 1
5 5 5 4 4 4 3 3 3 2 2 2 2 1 1 1 1 0 0 -0 -0 -0 -0 -1 -1 -1 -1 -2 -2 -2 -2 -3 -3 -3 -3 -3 -2 -2 -2 -2 -1 -1 0
5 5 5 4 4 4 3 3 3 2 2 2 1 1 1 1 0 0 -0 -1 -1 -1 -1 -1 -1 -1 -2 -2 -2 -2 -3 -3 -3 -3 -3 -3 -3 -3 -3 -3 -3 -3 -2
5 5 4 4 4 3 3 3 2 2 2 1 1 1 1 0 0 -0 -1 -1 -1 -1 -1 -1 -2 -2 -2 -3 -3 -3 -3 -3 -4 -4 -4 -4 -4 -4 -4 -4 -4 -4 -3
5 5 4 4 3 3 3 2 2 2 1 1 1 1 0 0 -0 -0 -1 -1 -1 -1 -2 -2 -2 -3 -3 -3 -3 -3 -4 -4 -4 -4 -4 -4 -4 -4 -4 -4 -4 -4 -3
5 4 4 4 3 3 3 2 2 1 1 1 1 0 0 -0 -0 -1 -1 -2 -2 -2 -2 -3 -3 -3 -4 -4 -4 -4 -4 -4 -4 -4 -4 -4 -4 -4 -5 -5 -5 -5 -5
4 4 4 3 3 3 2 2 1 1 1 1 0 0 -0 -0 -1 -1 -2 -2 -2 -3 -3 -3 -3 -4 -4 -4 -5 -5 -5 -5 -5 -4 -5 -5 -5 -5 -5 -5 -6 -6 -6
4 4 3 3 3 2 2 1 1 1 0 0 -0 -0 -1 -1 -1 -1 -2 -3 -3 -3 -3 -4 -4 -4 -4 -5 -5 -5 -5 -5 -5 -5 -5 -5 -5 -5 -5 -5 -6 -6 -6
3 3 3 3 2 2 1 1 1 0 -0 -0 -1 -1 -1 -1 -2 -2 -2 -3 -3 -4 -4 -4 -4 -4 -5 -5 -5 -5 -6 -6 -6 -6 -6 -6 -6 -6 -6 -6 -6 -6 -6
3 3 3 2 2 1 1 1 0 -0 -1 -1 -1 -1 -2 -2 -2 -2 -3 -3 -4 -4 -4 -4 -5 -5 -5 -5 -5 -6 -6 -6 -6 -6 -6 -6 -6 -6 -6 -6 -6 -6 -6
3 2 2 2 2 1 1 0 -0 -0 -1 -1 -2 -2 -2 -2 -3 -3 -3 -4 -4 -4 -5 -5 -5 -5 -5 -6 -6 -6 -6 -7 -7 -7 -7 -7 -7 -7 -7 -7 -7 -6 -6
2 2 2 1 1 1 0 -0 -0 -1 -1 -2 -2 -2 -3 -3 -3 -4 -4 -4 -5 -5 -5 -6 -6 -6 -6 -6 -6 -7 -7 -7 -7 -7 -8 -7 -7 -7 -7 -7 -7 -7 -7
2 1 1 1 0 0 -0 -1 -1 -1 -2 -2 -2 -3 -3 -3 -4 -4 -4 -5 -5 -5 -6 -6 -6 -6 -7 -7 -7 -7 -7 -7 -8 -8 -8 -8 -8 -8 -8 -8 -8 -8 -8
1 1 1 0 0 -0 -1 -1 -1 -2 -2 -2 -3 -3 -3 -4 -4 -4 -5 -5 -5 -6 -6 -7 -7 -7 -7 -7 -7 -8 -8 -8 -8 -8 -8 -8 -8 -8 -8 -8 -8 -8 -8
1 1 0 -0 -0 -1 -1 -2 -2 -2 -3 -3 -3 -4 -4 -4 -5 -5 -5 -6 -6 -6 -6 -7 -7 -7 -7 -8 -8 -8 -8 -8 -8 -8 -8 -8 -9 -9 -9 -9 -9 -9 -8
1 0 -0 -1 -1 -1 -2 -2 -2 -3 -3 -3 -4 -4 -4 -5 -5 -5 -6 -6 -6 -6 -7 -7 -7 -8 -8 -8 -8 -9 -9 -9 -9 -9 -9 -9 -9 -9 -9 -9 -9 -9 -9
0 -0 -1 -1 -1 -2 -2 -3 -3 -3 -4 -4 -4 -5 -5 -5 -5 -6 -6 -6 -7 -7 -7 -7 -8 -8 -8 -8 -9 -9 -9 -9 -9 -9 -9 -9 -9 -9 -9 -9 -9 -9 -9
-0 -0 -1 -1 -2 -2 -3 -3 -3 -4 -4 -4 -5 -5 -5 -6 -6 -6 -6 -7 -7 -7 -7 -8 -8 -8 -8 -9 -9 -9 -9 -9 -9 -9 -9 -9 -9 -9 -9 -9 -9 -9 -9
-1 -1 -1 -2 -2 -3 -3 -4 -4 -4 -5 -5 -5 -5 -6 -6 -6 -6 -6 -7 -7 -7 -7 -8 -8 -8 -9 -9 -9 -9 -9 -9 -9 -9 -9 -10 -10 -10 -9 -9 -9 -9 -9
-1 -2 -2 -2 -3 -3 -4 -4 -4 -5 -5 -5 -5 -6 -6 -6 -6 -7 -7 -7 -7 -7 -8 -8 -8 -8 -9 -9 -9 -9 -9 -9 -9 -10 -10 -10 -10 -10 -10 -9 -9 -9 -9
-2 -2 -2 -3 -3 -4 -4 -4 -5 -5 -5 -5 -6 -6 -6 -6 -7 -7 -7 -7 -7 -8 -8 -8 -8 -8 -9 -9 -9 -9 -9 -9 -9 -10 -10 -10 -10 -10 -10 -9 -9 -9 -9
-2 -2 -3 -3 -4 -4 -4 -5 -5 -5 -5 -6 -6 -6 -6 -7 -7 -7 -7 -8 -8 -8 -8 -8 -8 -9 -9 -9 -9 -9 -9 -9 -9 -10 -10 -10 -10 -10 -10 -9 -9 -9 -9
-3 -3 -3 -4 -4 -4 -5 -5 -5 -5 -6 -6 -6 -6 -7 -7 -7 -7 -7 -8 -8 -8 -8 -8 -8 -9 -9 -9 -9 -9 -9 -9 -9 -9 -10 -10 -10 -9 -9 -9 -9 -9 -9
Wind_Speed
7 6 6 5 5 4 4 4 4 4 4 4 4 4 4 5 5 5 4 5 5 5 5 5 5 5 4 4 4 4 5 5 8 8 8 9 11 11 10 10 10 10 10
7 7 7 6 5 5 5 4 4 4 4 4 4 5 4 4 4 4 5 5 5 5 5 5 5 5 5 5 5 5 5 6 7 10 9 9 11 11 11 11 10 10 10
7 7 7 7 6 6 5 5 4 4 4 4 4 4 4 4 4 4 4 4 4 4 5 5 6 6 6 5 6 6 6 6 7 8 9 9 9 9 11 10 11 9 10
8 8 8 8 7 6 5 5 5 4 4 4 4 4 4 4 4 4 4 4 4 5 5 5 6 6 7 7 6 7 7 8 8 8 8 9 8 9 9 9 10 10 10
8 8 9 8 7 6 6 5 5 5 5 5 5 5 4 4 4 5 5 5 5 5 5 5 5 6 7 7 7 7 8 7 7 8 8 8 8 8 8 9 10 11 11
9 9 8 7 7 7 6 6 5 5 5 5 5 5 5 4 5 7 6 5 5 5 5 5 6 6 7 8 9 10 10 9 9 8 8 9 10 10 9 9 10 10 9
9 8 8 8 8 7 7 6 7 6 6 6 5 5 6 5 6 7 7 6 5 5 5 6 5 5 7 7 8 9 9 10 10 10 10 11 11 10 11 11 11 11 12
9 9 8 8 8 7 7 7 7 6 6 6 6 6 6 5 6 6 6 6 5 5 5 6 7 7 6 8 8 8 9 8 9 8 9 10 10 11 11 11 12 13 12
9 9 8 8 8 8 8 8 7 6 6 6 5 6 6 6 6 6 6 5 5 6 6 6 7 7 8 10 9 9 10 9 8 10 12 12 14 14 12 9 9 9 10
9 9 8 8 8 9 8 8 6 6 6 5 5 6 6 6 6 6 6 4 5 5 5 5 6 8 10 11 9 9 10 10 10 10 10 10 10 10 10 8 8 8 9
8 8 8 8 9 8 7 6 6 6 6 6 6 6 6 6 6 6 7 5 5 6 6 5 5 8 10 11 10 8 10 11 10 9 9 8 8 7 7 7 7 7 9
7 7 8 8 7 6 7 6 6 6 6 6 6 6 5 5 6 6 7 7 7 6 6 6 6 10 11 11 9 9 11 11 7 7 7 7 8 8 8 9 9 9 10
7 8 8 8 7 7 7 7 6 6 6 6 5 5 5 4 5 7 8 8 8 7 6 8 10 11 11 9 8 10 9 7 6 7 7 8 8 9 9 9 9 9 11
8 8 7 7 7 7 6 6 6 6 6 6 6 6 5 4 4 4 4 5 7 7 7 8 10 10 8 8 8 7 5 6 6 7 8 8 8 8 8 8 9 9 9
8 8 7 7 7 7 7 7 8 8 7 7 6 6 5 6 5 6 6 5 5 5 6 6 6 6 6 5 6 6 5 6 6 6 7 8 8 8 8 8 8 8 9
8 8 6 6 6 6 6 6 9 9 10 11 10 8 7 8 8 9 9 9 9 8 7 6 6 6 6 6 6 6 6 6 6 7 7 8 8 9 9 9 8 9 9
9 8 6 6 6 6 6 6 5 6 9 11 11 11 10 10 10 9 9 9 10 9 7 6 6 6 6 6 6 7 7 7 7 7 8 8 8 8 9 9 9 9 9
9 9 8 7 7 7 7 7 6 6 5 5 7 9 10 10 10 9 9 8 7 6 6 6 6 6 6 7 7 7 8 8 8 8 8 8 8 8 9 9 9 10 10
8 7 7 7 7 7 6 6 6 6 6 5 4 5 7 8 9 9 8 6 6 6 6 6 6 6 7 7 7 8 8 8 9 8 8 9 8 8 9 9 10 12 11
8 9 8 6 6 6 6 6 6 6 6 6 6 5 4 5 5 6 6 6 6 6 6 6 6 7 7 7 8 8 8 9 9 9 9 9 8 9 10 11 10 10 10
6 7 9 7 6 7 6 7 7 6 6 6 6 6 7 6 6 6 6 6 6 7 6 6 7 7 7 7 7 8 10 9 9 9 9 9 9 9 9 10 10 10 10
6 6 6 7 7 6 7 6 7 7 7 7 6 6 9 7 6 6 6 6 6 6 6 6 7 7 7 7 8 8 9 10 9 9 9 9 9 10 10 10 10 10 10
6 7 6 7 6 8 7 7 7 7 7 7 6 6 6 6 6 6 6 6 6 6 6 6 7 8 8 8 8 9 9 10 10 10 10 10 10 10 10 10 12 12 11
7 7 7 7 7 7 7 7 7 7 7 7 6 6 6 6 7 7 6 6 6 6 6 7 8 10 11 10 10 10 11 12 12 11 13 12 12 11 10 11 11 12 11
7 7 7 7 7 7 7 7 7 7 7 7 7 6 6 6 6 6 6 6 7 7 8 8 8 9 11 12 12 12 15 17 17 14 12 11 12 12 11 11 11 11 11
7 8 7 7 7 8 8 8 8 8 7 7 7 7 6 6 6 6 6 6 6 6 7 7 9 10 12 12 14 15 17 18 18 18 13 10 10 10 11 10 12 11 11
Wind_Direction
224 223 224 226 229 236 244 256 269 280 288 294 300 304 310 317 322 320 318 318 315 317 324 321 317 315 314 313 312 307 299 291 285 294 304 312 318 321 318 312 306 300 295
223 223 225 226 224 230 240 250 259 269 277 283 289 292 298 304 310 313 312 313 314 317 322 323 322 320 314 312 311 306 302 298 290 295 301 310 313 319 319 318 314 306 299
220 222 225 227 227 232 239 246 252 261 269 274 280 284 290 296 300 302 306 306 309 312 316 315 316 315 312 314 311 308 306 303 297 294 298 305 307 315 317 317 317 315 309
219 222 227 228 228 231 235 240 247 255 262 268 271 277 284 288 289 292 296 299 304 308 310 309 311 311 311 313 310 310 309 305 303 299 299 303 307 315 316 318 318 318 315
220 224 228 228 227 227 230 235 242 249 256 260 264 270 276 280 286 292 289 291 296 301 303 304 305 306 308 308 308 310 309 303 303 300 299 303 308 316 319 319 314 314 310
223 227 225 222 221 222 226 230 236 243 248 251 256 264 271 274 286 287 288 286 290 293 299 302 304 297 301 300 301 304 304 300 301 298 298 300 304 309 312 311 312 312 308
228 229 223 220 220 222 223 228 232 237 242 247 253 259 265 274 282 281 281 281 284 290 298 303 304 304 303 302 302 301 298 296 293 293 293 295 301 307 307 305 304 301 296
230 229 223 219 222 223 224 229 233 236 240 247 253 257 263 271 280 280 282 277 281 288 293 296 299 303 307 310 306 302 299 297 298 294 293 296 299 302 300 297 296 296 292
233 231 225 219 220 221 224 229 230 232 238 244 251 256 262 270 274 276 280 281 280 286 289 291 296 298 306 310 306 304 304 305 304 301 299 298 299 301 303 300 299 299 298
237 235 228 221 221 223 226 227 226 227 235 241 247 251 256 265 271 272 274 274 280 286 288 287 288 296 308 312 308 305 305 309 312 309 304 302 301 301 302 294 293 293 294
241 235 227 222 222 224 224 222 221 222 230 235 244 248 252 259 264 265 266 267 276 286 290 293 296 304 306 308 306 301 303 308 305 304 304 304 306 307 307 303 295 285 284
238 232 228 225 221 219 218 218 217 219 227 235 241 248 250 251 255 259 261 266 278 282 287 292 296 302 303 304 304 304 306 306 301 301 302 304 308 310 309 305 298 289 279
236 233 229 223 219 217 216 216 215 218 226 233 236 245 250 248 248 252 260 267 273 277 282 288 293 299 302 300 298 302 303 299 299 299 301 303 306 305 304 302 298 291 284
236 233 227 221 219 217 216 216 216 217 223 229 234 242 250 251 252 254 258 263 268 272 279 284 287 289 290 291 296 296 293 294 298 296 299 302 304 304 304 306 304 305 299
236 233 227 223 222 221 220 220 221 225 228 231 235 239 246 253 254 259 267 268 272 276 285 282 281 285 288 291 293 294 296 295 296 297 299 301 303 304 305 307 303 301 295
234 231 226 221 222 222 224 230 228 233 237 239 244 247 251 257 267 266 267 272 276 278 280 275 278 280 284 290 294 297 298 298 298 298 297 297 300 302 303 303 301 298 296
233 231 225 221 220 221 221 225 233 229 230 237 241 244 249 257 261 265 269 271 272 272 268 270 274 278 281 284 288 290 292 295 296 294 293 295 296 297 298 299 300 298 297
233 229 223 222 220 220 220 223 225 228 231 233 234 239 246 253 258 261 265 269 265 259 260 266 271 276 279 282 285 287 290 293 292 291 292 292 292 293 294 295 296 296 296
231 226 221 220 218 219 219 220 222 225 232 238 238 236 238 248 254 254 256 255 259 261 262 265 269 274 277 280 282 284 286 288 289 289 289 289 290 290 291 292 293 293 292
229 223 217 217 216 216 215 217 220 222 227 232 236 237 230 234 242 245 243 246 253 260 263 267 270 273 276 278 281 283 284 285 287 286 287 288 288 288 288 289 290 290 290
225 219 212 215 218 216 215 218 220 222 226 232 237 235 231 237 244 248 248 248 252 258 262 266 270 273 274 276 277 279 281 283 284 285 286 286 287 287 287 286 287 286 287
220 216 212 215 217 216 218 219 220 223 227 233 239 239 239 242 246 249 250 253 256 259 262 266 269 271 271 272 275 277 278 280 282 283 283 284 285 286 286 286 286 287 286
220 218 216 217 217 218 221 221 221 224 228 230 234 235 235 238 244 248 253 257 260 262 264 264 267 270 272 272 272 271 273 276 279 281 282 284 284 285 285 286 286 288 287
219 219 219 219 216 217 220 222 222 225 227 230 232 234 236 239 244 248 252 257 260 262 264 265 266 269 273 276 275 272 271 273 276 276 276 277 281 283 284 283 284 286 286
222 221 220 219 219 219 221 222 223 225 227 229 232 235 238 241 245 250 252 255 259 262 265 269 270 272 273 275 277 278 278 279 281 280 278 277 278 279 282 283 284 288 287
223 222 221 221 221 221 222 223 225 226 228 230 231 234 237 241 245 250 253 254 258 263 268 271 271 274 278 280 280 282 284 286 287 287 285 280 279 280 283 284 285 285 287
Height
1498 1497 1496 1495 1494 1492 1491 1489 1488 1486 1484 1482 1480 1478 1476 1474 1472 1470 1468 1466 1465 1463 1461 1459 1458 1456 1454 1453 1451 1449 1448 1446 1443 1440 1438 1435 1433 1431 1428 1426 1425 1424 1423
1494 1493 1492 1491 1490 1489 1488 1486 1484 1483 1481 1479 1477 1475 1473 1472 1470 1468 1466 1464 1462 1460 1458 1456 1455 1453 1451 1450 1448 1446 1444 1442 1440 1436 1433 1431 1429 1426 1424 1421 1419 1418 1416
1489 1488 1488 1487 1486 1485 1484 1483 1481 1479 1478 1476 1474 1473 1471 1468 1467 1465 1463 1461 1459 1457 1455 1454 1452 1450 1449 1447 1445 1443 1441 1438 1436 1433 1429 1427 1425 1422 1419 1417 1414 1412 1410
1484 1484 1483 1483 1482 1481 1480 1479 1477 1476 1474 1473 1471 1469 1467 1465 1463 1462 1460 1458 1456 1455 1453 1451 1449 1447 1445 1444 1441 1439 1437 1435 1432 1429 1426 1423 1421 1418 1416 1412 1409 1407 1405
1479 1479 1478 1478 1478 1477 1476 1475 1474 1472 1470 1469 1467 1466 1464 1462 1460 1458 1457 1455 1453 1451 1450 1448 1446 1444 1442 1440 1438 1436 1433 1431 1429 1426 1423 1420 1417 1415 1412 1409 1406 1402 1399
1474 1474 1474 1473 1473 1472 1472 1471 1469 1468 1466 1465 1463 1462 1460 1458 1457 1455 1454 1452 1450 1448 1446 1444 1442 1440 1438 1436 1434 1432 1430 1428 1425 1423 1420 1417 1414 1412 1409 1406 1403 1399 1395
1470 1469 1469 1468 1468 1467 1467 1466 1465 1463 1462 1461 1459 1458 1456 1455 1453 1451 1450 1448 1446 1444 1442 1441 1439 1436 1434 1432 1430 1427 1426 1424 1422 1420 1416 1414 1411 1408 1405 1402 1400 1396 1393
1465 1464 1464 1463 1463 1462 1462 1461 1460 1459 1457 1456 1455 1453 1452 1451 1449 1448 1446 1444 1443 1441 1439 1437 1435 1433 1430 1428 1425 1423 1421 1419 1417 1414 1412 1409 1407 1404 1402 1399 1395 1391 1388
1459 1459 1458 1458 1458 1457 1456 1456 1455 1454 1453 1451 1450 1449 1448 1446 1445 1444 1442 1440 1439 1437 1435 1433 1431 1429 1427 1424 1422 1419 1417 1414 1412 1410 1407 1404 1402 1399 1397 1394 1391 1388 1383
1454 1454 1453 1453 1452 1452 1451 1451 1450 1449 1448 1447 1446 1444 1443 1442 1441 1439 1438 1436 1435 1433 1431 1429 1427 1425 1423 1420 1418 1415 1412 1410 1407 1404 1402 1399 1397 1394 1392 1390 1387 1384 1380
1449 1448 1447 1447 1447 1446 1446 1445 1445 1444 1443 1442 1441 1440 1438 1437 1436 1435 1434 1432 1431 1429 1427 1425 1423 1421 1418 1416 1414 1411 1409 1406 1403 1400 1397 1395 1392 1390 1387 1385 1382 1380 1377
1443 1442 1441 1441 1441 1441 1440 1440 1439 1439 1438 1437 1436 1435 1434 1433 1432 1430 1429 1428 1427 1425 1423 1421 1419 1416 1414 1412 1410 1407 1405 1402 1399 1396 1393 1390 1388 1385 1382 1380 1377 1375 1372
1437 1436 1436 1435 1435 1435 1434 1434 1434 1433 1433 1432 1431 1430 1429 1428 1427 1426 1425 1424 1422 1421 1419 1417 1415 1412 1410 1408 1405 1403 1400 1398 1395 1392 1389 1386 1383 1380 1377 1374 1371 1369 1366
1431 1430 1430 1429 1429 1429 1428 1428 1428 1428 1427 1427 1426 1425 1424 1423 1422 1421 1420 1419 1417 1416 1414 1412 1410 1408 1406 1403 1401 1398 1396 1394 1391 1388 1385 1382 1379 1376 1373 1370 1366 1363 1360
1425 1425 1424 1424 1423 1423 1422 1422 1422 1422 1422 1421 1421 1420 1419 1418 1418 1417 1416 1414 1413 1411 1409 1408 1406 1404 1401 1399 1397 1394 1392 1389 1387 1384 1381 1378 1375 1372 1368 1365 1362 1359 1355
1419 1419 1418 1418 1417 1417 1417 1416 1416 1417 1416 1416 1415 1415 1414 1413 1412 1411 1411 1409 1408 1407 1405 1403 1401 1399 1397 1395 1392 1390 1387 1385 1382 1380 1377 1374 1370 1367 1364 1361 1358 1354 1351
1414 1413 1412 1412 1412 1411 1411 1410 1410 1410 1410 1410 1410 1409 1408 1408 1407 1406 1405 1404 1403 1402 1400 1398 1396 1395 1392 1390 1388 1385 1383 1381 1378 1375 1372 1369 1366 1363 1360 1356 1353 1350 1346
1408 1407 1407 1406 1406 1406 1405 1405 1405 1405 1404 1404 1404 1403 1403 1402 1402 1401 1400 1399 1398 1397 1395 1393 1391 1390 1387 1385 1383 1381 1378 1376 1373 1371 1368 1365 1362 1359 1355 1352 1349 1346 1342
1402 1401 1401 1400 1400 1400 1400 1400 1399 1399 1399 1399 1399 1398 1398 1397 1396 1396 1395 1394 1392 1391 1390 1388 1386 1384 1382 1380 1378 1376 1373 1371 1368 1366 1363 1360 1357 1354 1351 1348 1344 1341 1338
1396 1396 1395 1395 1394 1394 1394 1394 1394 1394 1393 1393 1393 1393 1392 1392 1391 1390 1389 1388 1387 1385 1384 1382 1381 1379 1377 1375 1373 1370 1368 1366 1363 1361 1358 1355 1352 1350 1346 1343 1340 1336 1333
1390 1390 1390 1389 1389 1389 1388 1388 1388 1388 1388 1388 1388 1388 1387 1386 1385 1385 1384 1383 1381 1380 1378 1377 1375 1373 1372 1369 1367 1365 1363 1360 1358 1356 1353 1350 1347 1344 1341 1338 1335 1332 1328
1384 1384 1383 1383 1383 1383 1383 1383 1383 1383 1383 1382 1382 1382 1382 1381 1380 1379 1378 1377 1376 1375 1373 1371 1370 1368 1366 1364 1362 1359 1357 1355 1353 1350 1348 1345 1342 1339 1336 1333 1330 1327 1324
1378 1378 1378 1377 1377 1377 1377 1377 1377 1377 1377 1377 1377 1376 1376 1375 1375 1374 1373 1372 1371 1369 1368 1366 1364 1362 1361 1359 1356 1354 1352 1349 1347 1345 1342 1340 1337 1334 1331 1328 1325 1322 1319
1373 1372 1372 1371 1371 1371 1371 1371 1371 1371 1371 1371 1371 1371 1370 1370 1369 1368 1367 1366 1365 1364 1362 1360 1359 1357 1355 1353 1351 1348 1346 1344 1342 1339 1337 1334 1332 1329 1326 1323 1320 1317 1314
1367 1367 1366 1366 1365 1365 1365 1365 1366 1366 1366 1366 1366 1365 1365 1364 1364 1363 1362 1361 1360 1358 1357 1355 1353 1351 1349 1347 1345 1343 1341 1338 1336 1334 1332 1330 1327 1324 1321 1318 1315 1312 1309
1361 1361 1360 1360 1360 1359 1360 1360 1360 1360 1360 1360 1360 1360 1359 1359 1358 1357 1356 1355 1354 1353 1351 1350 1348 1346 1344 1341 1339 1337 1335 1333 1331 1329 1327 1325 1322 1319 1317 1314 1311 1308 1305